Weather History for Iliamna, AK

Change the Weather History Date:

Thursday, July 4, 2013

  Actual Average Record
Temperature  
Mean Temperature 50 °F -  
Max Temperature 54 °F 62 °F 79 °F (1949)
Min Temperature 46 °F 47 °F 39 °F (1971)
Degree Days  
Heating Degree Days 15    
Moisture  
Dew Point 48 °F    
Average Humidity 95    
Maximum Humidity 100    
Minimum Humidity 78    
Precipitation  
Precipitation 0.04 in - - ()
Sea Level Pressure  
Sea Level Pressure 30.01 in    
Wind  
Wind Speed 5 mph (SE)    
Max Wind Speed 13 mph    
Max Gust Speed -    
Visibility 8 miles    
Events Fog , Rain    
Averages and records for this station are not official NWS values.
T = Trace of Precipitation, MM = Missing Value Source: NWS Daily Summary

Daily Weather History Graph

Daily Weather History Graph

Search for Another Location

Airport:

Trip Planner

Search our weather history database for the weather conditions in past years. The results will help you decide how hot, cold, wet, or windy it might be!

Date:

Astronomy

Jul. 04, 2013 Rise Set
Actual Time 5:08 AM AKDT 11:38 PM AKDT
Civil Twilight 3:38 AM AKDT 1:07 AM AKDT
Nautical Twilight Sun does not rise Sun does not rise
Astronomical Twilight Sun does not rise Sun does not rise
Moon 3:00 AM AKDT (7/4) 8:30 PM AKDT (7/4)
Length of Visible Light 21h 28m
Length of Day
18h 30m
Waning Crescent, 10% of the Moon is Illuminated
Jul 4
Waning Crescent
Jul 7
New
Jul 15
First Quarter
Jul 22
Full
Jul 29
Last Quarter

Hourly Weather History & Observations

Time (AKDT) Temp. Windchill Dew Point Humidity Pressure Visibility Wind Dir Wind Speed Gust Speed Precip Events Conditions
12:53 AM 48.0 °F - 46.9 °F 96% 29.93 in 10.0 mi East 12.7 mph - 0.05 in Rain Light Rain
1:32 AM 48.2 °F - 46.4 °F 93% 29.93 in 8.0 mi East 8.1 mph - 0.03 in Rain Rain
1:53 AM 46.9 °F - 46.9 °F 100% 29.94 in 8.0 mi East 8.1 mph - 0.06 in Rain Light Rain
2:00 AM 46.4 °F 42.9 °F 46.4 °F 100% 29.93 in 9.0 mi East 6.9 mph - 0.00 in Rain Light Rain
2:53 AM 48.0 °F - 46.9 °F 96% 29.95 in 8.0 mi East 6.9 mph - 0.03 in Rain Light Rain
3:17 AM 46.4 °F - 46.4 °F 100% 29.95 in 4.0 mi Calm Calm - 0.04 in Rain Heavy Rain
3:25 AM 46.4 °F - 46.4 °F 100% 29.94 in 2.5 mi Calm Calm - 0.07 in Rain Heavy Rain
3:42 AM 46.4 °F 45.2 °F 46.4 °F 100% 29.94 in 4.0 mi WSW 3.5 mph - 0.12 in Rain Rain
3:53 AM 46.9 °F - 46.9 °F 100% 29.95 in 6.0 mi Calm Calm - 0.13 in Rain Light Rain
4:53 AM 46.9 °F - 46.0 °F 97% 29.96 in 10.0 mi Calm Calm - 0.01 in   Overcast
5:53 AM 46.9 °F - 46.0 °F 97% 29.96 in 7.0 mi Calm Calm - 0.00 in Rain Light Rain
6:11 AM 46.4 °F - 46.4 °F 100% 29.95 in 2.0 mi Calm Calm - 0.02 in Rain Light Rain
6:18 AM 46.4 °F - 46.4 °F 100% 29.95 in 3.0 mi Calm Calm - 0.02 in Rain Light Rain
6:53 AM 46.9 °F - 46.9 °F 100% 29.96 in 4.0 mi Calm Calm - 0.03 in Rain Light Rain
7:53 AM 46.9 °F - 46.9 °F 100% 29.98 in 10.0 mi Calm Calm - 0.00 in Rain Light Rain
8:12 AM 46.4 °F - 46.4 °F 100% 29.97 in 10.0 mi Calm Calm - 0.00 in Rain Light Rain
8:19 AM 46.4 °F 45.2 °F 46.4 °F 100% 29.98 in 10.0 mi East 3.5 mph - 0.00 in Rain Light Rain
8:53 AM 48.0 °F - 48.0 °F 100% 29.99 in 10.0 mi East 3.5 mph - 0.00 in   Overcast
9:16 AM 48.2 °F - 48.2 °F 100% 29.99 in 10.0 mi ESE 3.5 mph - N/A   Overcast
9:53 AM 48.9 °F - 48.0 °F 97% 30.01 in 10.0 mi Calm Calm - N/A   Overcast
10:53 AM 50.0 °F - 48.9 °F 96% 30.02 in 10.0 mi East 3.5 mph - 0.01 in Rain Light Rain
11:40 AM 50.0 °F - 50.0 °F 100% 30.01 in 10.0 mi SSE 4.6 mph - 0.01 in Rain Light Rain
11:53 AM 51.1 °F - 48.9 °F 92% 30.02 in 10.0 mi SE 5.8 mph - 0.01 in Rain Light Rain
12:53 PM 53.1 °F - 50.0 °F 89% 30.02 in 10.0 mi SE 5.8 mph - 0.00 in Rain Light Rain
1:00 PM 53.6 °F - 48.2 °F 82% 30.02 in 10.0 mi SSE 5.8 mph - 0.00 in Rain Light Rain
1:53 PM 52.0 °F - 46.9 °F 83% 30.04 in 10.0 mi SSE 5.8 mph - 0.00 in   Overcast
2:38 PM 51.8 °F - 48.2 °F 88% 30.03 in 6.0 mi South 6.9 mph - 0.00 in Fog , Rain Light Rain
2:53 PM 51.1 °F - 48.9 °F 92% 30.04 in 6.0 mi SW 5.8 mph - 0.01 in Fog Overcast
3:09 PM 53.6 °F - 50.0 °F 88% 30.04 in 10.0 mi SW 8.1 mph - N/A Fog Overcast
3:53 PM 53.1 °F - 48.0 °F 83% 30.04 in 10.0 mi SSW 5.8 mph - 0.00 in Fog , Rain Light Rain
4:53 PM 52.0 °F - 48.0 °F 86% 30.06 in 5.0 mi SSW 4.6 mph - 0.00 in Rain Light Rain
5:13 PM 51.8 °F - 48.2 °F 88% 30.05 in 6.0 mi SSW 3.5 mph - 0.00 in   Overcast
5:53 PM 51.1 °F - 48.9 °F 92% 30.06 in 3.0 mi Calm Calm - 0.01 in Rain Light Rain
6:18 PM 51.8 °F - 48.2 °F 88% 30.05 in 10.0 mi WSW 3.5 mph - 0.01 in   Overcast
6:44 PM 51.8 °F - 48.2 °F 88% 30.05 in 10.0 mi Calm Calm - 0.01 in Rain Light Rain
6:53 PM 51.1 °F - 48.9 °F 92% 30.06 in 10.0 mi Calm Calm - 0.01 in Rain Light Rain
7:53 PM 50.0 °F - 50.0 °F 100% 30.06 in 7.0 mi SE 5.8 mph - 0.01 in Rain Light Rain
8:12 PM 50.0 °F - 50.0 °F 100% 30.06 in 9.0 mi SE 4.6 mph - 0.00 in Rain Light Rain
8:15 PM 50.0 °F - 50.0 °F 100% 30.06 in 8.0 mi SE 4.6 mph - 0.00 in Rain Light Rain
8:31 PM 50.0 °F - 48.2 °F 94% 30.06 in 4.0 mi ESE 5.8 mph - 0.01 in Rain Light Rain
8:53 PM 48.9 °F - 48.9 °F 100% 30.06 in 6.0 mi ESE 4.6 mph - 0.01 in   Overcast
9:53 PM 48.9 °F - 48.9 °F 100% 30.06 in 9.0 mi ESE 4.6 mph - N/A   Overcast
10:53 PM 48.9 °F - 48.9 °F 100% 30.08 in 10.0 mi Calm Calm - N/A   Overcast
11:53 PM 48.9 °F - 48.9 °F 100% 30.08 in 10.0 mi Calm Calm - N/A   Overcast